Content
SEND FEEDBACK

Daily
Averages
Monthly
Summary
Australia

TELFER MINING CENTRE, WESTERN AUSTRALIA


Home > Oceania > Australia > Western Australia
Elevation: 294 meters     Latitude: 21 42S     Longitude: 122 13E

WEATHER
 
SELECT A DAY
Number of Records: 150,135;   Date Range: 2/26/03 - 8/10/14
 
SHARE

PRINT THIS DATA

[ ← Previous Day ]
WEATHER ALMANAC - 31 JANUARY, 2013
[ Next Day → ]
[ °F ]   °C
Weather ElementAverageHighLow
Temperature34.7 °C42 °C (3:00 pm)25.6 °C (5:00 am)
Dewpoint2.6 °C6 °C (12:00 am)0 °C (11:00 am)
Humidity11.8 %26 % (5:00 am)4 % (11:00 am)
Barometer1010.8 hPa1014.2 hPa (8:00 am)1007.8 hPa (5:00 pm)
Wind Speed19.8 km/h29.6 km/h (11:00 am)
Wind Gust35.2 km/h (2:00 pm)
Weather ElementAverage
Wind DirectionSE (140.3 °)

Weather ElementTotal
Precipitation---
Cooling Degree Days15.4 (Base 18.3)
Growing Degree Days23.8 (Base 10)
Averaged from 39 records on 31 January, 2013
WEATHER CONDITIONS BREAKOUT
WIND DIRECTION BREAKOUT
WEATHER BY HOUR - 31 JANUARY, 2013
[ °F ]   °C
Local TimeTemperatureDewpointHumidityBarometerVisibilityWind DirectionWind SpeedGust SpeedPrecipitationEventsConditions
12:00 AM31 °C6 °C21 %1011.2 hPaSouth (180°)22.2 km/h
1:00 AM30 °C5 °C20 %1011.2 hPaSouth (170°)24.1 km/h
2:00 AM29.4 °C4.4 °C12 %1008.8 hPaSSE (160°)22.2 km/h
2:00 AM30 °C4 °C19 %1011.2 hPaSSE (160°)22.2 km/h
3:00 AM28 °C4 °C21 %1011.2 hPaSSE (160°)18.5 km/h
3:00 AM27.8 °C4.4 °C13 %1008.8 hPaSSE (160°)18.5 km/h
4:00 AM27 °C4 °C23 %1011.2 hPaSSE (150°)16.7 km/h
5:00 AM25.6 °C5 °C16 %1010.2 hPaCalm
5:00 AM26 °C5 °C26 %1012.2 hPaCalm
6:00 AM27 °C5 °C24 %1012.2 hPaSouth (170°)13 km/h
6:00 AM27.2 °C4.4 °C14 %1010.2 hPaSouth (180°)13 km/h
7:00 AM29 °C5 °C22 %1013.2 hPaSE (140°)18.5 km/h
8:00 AM32.2 °C1.7 °C7 %1011.5 hPaESE (110°)27.8 km/h
8:00 AM33 °C2 °C14 %1014.2 hPaESE (110°)27.8 km/h
9:00 AM35 °C2 °C12 %1014.2 hPaESE (110°)25.9 km/h
9:00 AM34.4 °C2.2 °C6 %1011.5 hPaESE (110°)25.9 km/h
10:00 AM37 °C1 °C10 %1013.2 hPaEast (100°)25.9 km/h
11:00 AM38.3 °C0 °C4 %1010.8 hPaEast (100°)29.6 km/h
11:00 AM39 °C0 °C9 %1013.2 hPaEast (100°)29.6 km/h
12:00 PM41 °C2 °C9 %1012.2 hPaESE (120°)27.8 km/h
12:00 PM40.6 °C1.7 °C4 %1009.8 hPaESE (120°)27.8 km/h
1:00 PM41 °C0 °C8 %1011.2 hPaSSE (150°)18.5 km/h
2:00 PM40.6 °C0 °C4 %1008.5 hPaEast (100°)14.8 km/h
2:00 PM41 °C0 °C8 %1011.2 hPaEast (100°)14.8 km/h35.2 km/h
3:00 PM42 °C1 °C8 %1010.2 hPaESE (110°)22.2 km/h
3:00 PM41.7 °C0.6 °C4 %1008.1 hPaESE (110°)22.2 km/h
4:00 PM41 °C2 °C9 %1009.1 hPaSouth (180°)20.4 km/h
5:00 PM40.6 °C1.7 °C4 %1007.8 hPaSSE (160°)16.7 km/h
5:00 PM41 °C2 °C9 %1010.2 hPaSSE (160°)16.7 km/h
6:00 PM39 °C1 °C9 %1010.2 hPaSouth (180°)22.2 km/h
6:00 PM39.4 °C0.6 °C4 %1007.8 hPaSouth (180°)22.2 km/h
7:00 PM37 °C2 °C11 %1010.2 hPaSSE (160°)13 km/h
8:00 PM35 °C2.8 °C6 %1008.8 hPaSSE (150°)14.8 km/h
8:00 PM35 °C3 °C13 %1011.2 hPaSSE (150°)14.8 km/h
9:00 PM35 °C2.2 °C6 %1009.5 hPaSouth (170°)20.4 km/h
9:00 PM35 °C3 °C13 %1011.2 hPaSouth (170°)20.4 km/h
10:00 PM34 °C4 °C15 %1012.2 hPaSouth (170°)18.5 km/h
11:00 PM32.8 °C3.3 °C8 %1009.8 hPaSSE (160°)20.4 km/h
11:00 PM33 °C4 °C16 %1012.2 hPaSSE (160°)20.4 km/h
Hourly data recorded from YTEF, located 0 kilometers away from Telfer Mining Centre, Western Australia







STORIES FROM OUR PARTNERS